Weather Service Report


123 
ASUS44 KEWX 162010
RWRTX 
SOUTH TEXAS REGIONAL WEATHER ROUNDUP
NATIONAL WEATHER SERVICE AUSTIN/SAN ANTONIO TX
300 PM CDT WED APR 16 2014

NOTE: "FAIR" INDICATED FEW OR NO CLOUDS BELOW 12,000 FEET WITH NO
SIGNIFICANT WEATHER AND/OR OBSTRUCTIONS TO VISIBILITY.

* - THESE STATIONS ARE NOT NWS OR FAA STATIONS...AND ARE NOT SUBJECT
    TO NWS AND FAA QUALITY CONTROL.
 
TXZ171-172-183>190-162100-
TEXAS HILL COUNTRY AND EDWARDS PLATEAU
  
CITY           SKY/WX    TMP DP  RH WIND       PRES   REMARKS
JUNCTION       SUNNY     73  28  18 SW18G24   29.93F                  
*LLANO         SUNNY     72  34  25 S14G22    29.99F                  
BURNET         SUNNY     68  38  33 S18G28    30.01F                  
*HORSESHOE BAY SUNNY     71  36  28 S12G22    29.98F                  
*KERRVILLE     SUNNY     69  34  27 S18       29.98F                  
*FREDERICKSBRG SUNNY     67  34  29 S20       29.97F                  
*ROCKSPRINGS   MOSUNNY   66  32  28 SE18G30   29.97F                  
*BOERNE STAGE  SUNNY     68  34  28 S12G22    30.01F                  
*CASTROVILLE   SUNNY     71  37  29 S13G22    30.00F                  
HONDO          SUNNY     74  37  26 S15G22    30.01F                  
*UVALDE        SUNNY     71  38  29 SE13G21   29.98F                  
DEL RIO        SUNNY     74  36  25 SE21G29   29.91F                  
LAUGHLIN AFB   MOSUNNY   74  37  26 SE17G28   29.92F                  
CARRIZO SPRGS    N/A    N/A N/A N/A SE13      29.95F                  
$$

TXZ173-191>194-202-209-217>225-228-162100-
CENTRAL AND SOUTH CENTRAL TEXAS
  
CITY           SKY/WX    TMP DP  RH WIND       PRES   REMARKS
GEORGETOWN     SUNNY     68  41  37 SE15G26   30.01                   
AUSTIN/BERGSTM MOSUNNY   70  44  39 SE18G25   30.00F                  
AUSTIN/MABRY   SUNNY     71  42  35 S9G21     30.02F                  
*AUSTIN/EXEC   SUNNY     68  45  42 S18G26    30.02F                  
*LAGO VISTA    SUNNY     68  39  34 S15G23    30.01F                  
SAN MARCOS     SUNNY     72  43  35 S14G21    30.03F                  
NEW BRAUNFELS  SUNNY     73  42  32 S17G30    29.99F                  
RANDOLPH AFB   SUNNY     73  39  29 S17G24    29.99F                  
PT SAN ANTONIO SUNNY     72  37  28 S14G26    29.98F                  
SAN ANTONIO    MOSUNNY   73  38  27 S14G26    30.00F                  
STINSON FIELD  SUNNY     74  38  27 S10G17    29.98F                  
*PLEASANTON    HVY RAIN  74  38  26 SE12G20   30.00F                  
*LA GRANGE     SUNNY     70  51  50 SE10G21   30.03F                  
*GIDDINGS      PTSUNNY   67  46  47 SE10G18   30.07F                  
*GONZALES      MOSUNNY   73  49  43 S12       30.01F                  
$$

TXZ163>164-176>182-195>201-210>213-226-227-235-162100-
SOUTHEAST TEXAS
  
CITY           SKY/WX    TMP DP  RH WIND       PRES   REMARKS
COLLEGE STN    MOSUNNY   67  47  48 S18G24    30.06F                  
*BRYAN         MOSUNNY   66  47  50 SE12G22   30.06F                  
*CALDWELL      MOSUNNY   66  43  42 S17       30.07F                  
*CROCKETT      SUNNY     64  41  42 SE9       30.11F                  
*BRENHAM       SUNNY     65  46  49 SE14G21   30.07F                  
HUNTSVILLE     MOSUNNY   63  38  39 SE7       30.08F                  
CONROE         PTSUNNY   64  38  38 SE13G20   30.10F                  
HOUSTON BUSH   PTSUNNY   64  42  44 SE13G23   30.10F                  
HOUSTON HOBBY  MOSUNNY   64  45  49 SE12G18   30.09F                  
*HOUSTON SW AP PTSUNNY   67  47  48 E9G21     30.09F                  
PEARLAND       PTSUNNY   66  45  46 S10       30.11F                  
HOUSTON HOOKS  MOSUNNY   64  42  44 SE13G18   30.10F                  
ELLINGTON FLD  PTSUNNY   68  46  45 E13       30.10F                  
SUGAR LAND     PTSUNNY   66  47  50 SE14G20   30.08F                  
*HOUSTON EXEC  MOSUNNY   66  46  48 E13       30.09F                  
*CLEVELAND MUN MOSUNNY   65  39  38 S8        30.11F                  
*WHARTON       MOSUNNY   67  48  51 SE13G18   30.08F                  
$$

TXZ214>216-236>238-162100-
THE UPPER TEXAS COAST
  
CITY           SKY/WX    TMP DP  RH WIND       PRES   REMARKS
*ORANGE        PTSUNNY   61  45  55 S5        30.15F                  
PORT ARTHUR    PTSUNNY   65  45  48 E13G20    30.12F                  
GALVESTON      PTSUNNY   65  50  58 SE13      30.11F                  
ANGLETON       PTSUNNY   67  48  50 S15       30.09F                  
*BAY CITY      CLOUDY    69  51  52 SE10G18   30.08F                  
PALACIOS       LGT RAIN  68  49  50 SE18      30.07F                  
$$

TXZ229>234-239>247-162100-
TEXAS COASTAL BEND AND RIO GRANDE PLAINS
  
CITY           SKY/WX    TMP DP  RH WIND       PRES   REMARKS
VICTORIA       CLOUDY    70  50  49 SE18G26   30.05F                  
*BEEVILLE      SUNNY     74  45  34 S15       30.01F                  
ROCKPORT       MOSUNNY   71  50  47 SE17      30.04F                  
*PORT ARANSAS  MOSUNNY   69  51  53 SE14      30.04F                  
*PORT LAVACA   CLOUDY    66  52  59 E18G25    30.06F                  
*INGLESIDE     MOSUNNY   73  48  42 SE15G23   30.03F                  
CORPUS CHRISTI PTSUNNY   73  48  41 SE20G25   30.02F                  
CORPUS NAS     PTSUNNY   72  52  49 SE17      30.03F                  
*ROBSTOWN      MOSUNNY   74  45  35 S17       30.01F                  
ALICE          MOSUNNY   74  50  42 E14G20    29.99F                  
KINGSVILLE NAS PTSUNNY   75  53  46 E20G25    30.00F                  
COTULLA        SUNNY     76  38  25 SE16G25   29.97F                  
*FAITH RANCH   MOSUNNY   72  39  30 S15G23    29.96F                  
LAREDO         MOSUNNY   77  43  29 S18G28    29.98F                  
$$

TXZ248>255-162100-
DEEP SOUTH TEXAS
  
CITY           SKY/WX    TMP DP  RH WIND       PRES   REMARKS
BROWNSVILLE    PTSUNNY   73  52  47 S15G23    30.00F                  
PORT ISABEL    PTSUNNY   74  52  46 SE18      30.00F                  
*SOUTH PADRE   PTSUNNY   75  57  53 MISG      30.01F                  
HARLINGEN      PTSUNNY   76  52  43 SE13G25   29.98F                  
*HEBBRONVILLE  PTSUNNY   73  43  33 SE17G23   29.98F                  
MCALLEN        PTSUNNY   75  50  41 S10G26    29.98F                  
*WESLACO       PTSUNNY   78  48  35 SE15G21   29.97F                  
FALFURRIAS     MOSUNNY   78  51  39 SE15G24   29.98F                  
EDINBURG       PTSUNNY   77  49  37 S9G20     29.98F                  
*ZAPATA        PTSUNNY   74  44  33 SE10G21   29.95F                  
$$

TXZ213>215-236>238-242>244-246-247-251-254-255-162100-
CMAN STATIONS
  
STATION/POSITION TIME  TEMP    WIND        PRES    WAVE
                       AIR SEA DIR/SP/G            HT/PER
                 (UTC) (F)     (DEG/KT/KT) (MB)    (FT/S)
SABINE PASS      2000   59 67  150/  8/ 12 1020.1
SEA RIM ST PARK  1900   59     130/  8/ 10 1021.5
NORTH JETTY/GLS  2000   62 66  150/ 11/ 16   N/A
EAGLE POINT      2000   61 58  130/ 12/ 15 1019.4
MORGANS POINT    2000   62 63  120/  8/ 16 1020.9
MISSION/ARANSAS  1900   64     140/ 14     1019.0
PORT O'CONNOR    2000          120/ 13/ 17   N/A
PORT ARANSAS     1900   64 66  130/ 15/ 17 1018.2
MALAQUITE BEACH  2000   65 66  120/ 14/ 15 1016.4
BAFFIN BAY       2000   66 67  130/ 13/ 18 1016.7
PORT ISABEL      2000   68 65  120/ 14/ 18 1016.6
$$

GMZ080-GMZ150>470-162100-
OFFSHORE BUOY REPORTS
  
STATION/POSITION TIME  TEMP    WIND        PRES    WAVE
                       AIR SEA DIR/SP/G            HT/PER
                 (UTC) (F)     (DEG/KT/KT) (MB)    (FT/S)
20 E GALVESTON   2000   60 66  110/ 12/ 16 1019.2    2/ 5
35 NE PT MANSFLD 2000   66 69  120/ 14/ 16 1017.0    3/ 7
$$

Return to Home page


Western Regional Climate Center, wrcc@dri.edu